Content
SEND FEEDBACK

Daily
Averages
Monthly
Summary
United States of America

DUNSMUIR, CALIFORNIA


Home > North America > United States > California
Elevation: 3289 feet     Latitude: 41 12N     Longitude: 122 16W

WEATHER
 
SELECT A DAY
Number of Records: 234,152;   Date Range: 1/1/95 - 10/23/14
 
SHARE

PRINT THIS DATA

[ ← Previous Day ]
WEATHER ALMANAC - SEPTEMBER 1, 2013
[ Next Day → ]
[ °C ]   °F
Weather ElementAverageHighLow
Temperature69.2 °F82 °F (12:56 pm)48.9 °F (6:56 am)
Dewpoint39.2 °F43 °F (3:56 am)34 °F (3:56 pm)
Humidity36.7 %74 % (6:56 am)18 % (3:56 pm)
Barometer29.94 in29.99 in (6:56 am)29.91 in (1:56 pm)
Wind Speed1.7 mph6.9 mph (1:56 am)
Weather ElementAverage
Visibility10 mi
Wind DirectionNNE (10.9 °)

Weather ElementTotal
Precipitation---
Cooling Degree Days0.5 (Base 65)
Growing Degree Days15.5 (Base 50)
Averaged from 23 records on September 1, 2013
WEATHER CONDITIONS BREAKOUT
WIND DIRECTION BREAKOUT
WEATHER BY HOUR - SEPTEMBER 1, 2013
[ °C ]   °F
Local TimeTemperatureDewpointHumidityBarometerVisibilityWind DirectionWind SpeedGust SpeedPrecipitationEventsConditions
1:56 AM70.0 °F37.9 °F31 %29.94 in10.0 miEast (90°)6.9 mphClear
2:56 AM62.1 °F41.0 °F46 %29.94 in10.0 miCalmClear
3:56 AM54.0 °F43.0 °F66 %29.94 in10.0 miCalmClear
4:56 AM52.0 °F42.1 °F69 %29.96 in10.0 miCalmClear
5:56 AM54.0 °F41.0 °F62 %29.96 in10.0 miCalmClear
6:56 AM48.9 °F41.0 °F74 %29.99 in10.0 miCalmClear
7:56 AM62.1 °F43.0 °F50 %29.99 in10.0 miCalmClear
8:56 AM71.1 °F39.0 °F31 %29.97 in10.0 miEast (80°)5.8 mphClear
9:56 AM73.9 °F39.0 °F28 %29.99 in10.0 miVariable3.5 mphClear
10:56 AM75.9 °F41.0 °F29 %29.98 in10.0 miCalmClear
11:56 AM79.0 °F41.0 °F26 %29.95 in10.0 miVariable4.6 mphClear
12:56 PM82.0 °F39.9 °F22 %29.93 in10.0 miCalmClear
1:56 PM82.0 °F42.1 °F24 %29.91 in10.0 miVariable3.5 mphClear
2:56 PM82.0 °F39.9 °F22 %29.91 in10.0 miCalmClear
3:56 PM81.0 °F34.0 °F18 %29.92 in10.0 miCalmClear
4:56 PM79.0 °F35.1 °F20 %29.91 in10.0 miCalmClear
5:56 PM77.0 °F34.0 °F21 %29.91 in10.0 miCalmClear
6:56 PM73.9 °F39.0 °F28 %29.93 in10.0 miVariable3.5 mphClear
7:56 PM68.0 °F37.9 °F33 %29.94 in10.0 miCalmClear
8:56 PM69.1 °F35.1 °F29 %29.94 in10.0 miEast (80°)5.8 mphClear
9:56 PM64.9 °F37.0 °F36 %29.94 in10.0 miCalmClear
10:56 PM63.0 °F37.9 °F40 %29.95 in10.0 miCalmClear
11:56 PM66.0 °F41.0 °F40 %29.93 in10.0 miVariable4.6 mphClear
Hourly data recorded from KMHS, located miles away from Dunsmuir, California







STORIES FROM OUR PARTNERS